Location: Roanoke
(37.2710°N, 79.9420°W)
Time: 02:50:00
(UTC-04:00)

Daily predictions for brighter satellites

Satellite Brightness Start Highest point End
(mag) Time Altitude Azimuth Time Altitude Azimuth Time Altitude Azimuth
USA 234 3.6 00:06:31 46° SW 00:06:38 46° SW 00:12:55 10° WNW
Cosmos 1943 Rocket 3.1 00:04:07 10° NW 00:09:02 35° WSW 00:09:02 35° WSW
Terra 3.2 00:10:21 29° W 00:10:21 29° W 00:14:11 10° NW
Cosmos 1656 Rocket 3.9 00:14:34 10° NNW 00:19:41 61° W 00:19:41 61° W
ALOS 2 4.1 00:27:55 32° NNE 00:27:55 32° NNE 00:30:43 10° N
Meteor 1-24 Rocket 3.8 00:29:45 78° NE 00:29:45 78° NE 00:35:18 10° N
Cosmos 1818 4.2 00:32:06 10° NNW 00:37:07 51° NE 00:37:07 51° NE
Cosmos 1417 Rocket 4.4 00:31:18 10° N 00:37:13 83° N 00:37:13 83° N
CZ-2C R/B 4.4 00:35:46 10° NE 00:38:49 22° ENE 00:38:49 22° ENE
CZ-4B R/B 4.1 00:44:24 22° N 00:44:24 22° N 00:45:50 10° N
Cosmos 1553 Rocket 4.0 00:36:07 10° N 00:42:23 73° ENE 00:42:23 73° ENE
Cosmos 2344 3.5 00:56:45 68° SE 00:57:12 70° ESE 01:05:34 10° NE
H-2A R/B 4.4 00:57:05 10° N 00:58:50 25° N 00:58:50 25° N
CENTAUR R/B 3.6 01:03:42 32° E 01:03:42 32° E 01:08:07 10° NE
Cosmos 2266 Rocket 4.1 01:05:52 68° ENE 01:05:52 68° ENE 01:11:57 10° NNE
NOSS 3-3 (A) 4.3 00:59:31 10° NW 01:07:03 78° WSW 01:07:31 76° SSW
NOSS 3-3 (C) 4.3 00:59:37 10° NW 01:07:10 79° WSW 01:07:38 76° SSW
Cosmos 2369 4.0 01:01:58 10° NNW 01:06:47 65° N 01:06:47 65° N
S3M 4.1 01:04:19 10° NNW 01:10:04 64° WNW 01:10:04 64° WNW
Cosmos 1867 4.0 01:11:28 58° NNW 01:11:28 58° NNW 01:16:12 10° NNE
NOSS 3-2 (C) 4.3 01:11:29 40° W 01:12:53 46° NW 01:19:14 10° NNE
Cosmos 841 Rocket 4.1 01:11:23 10° NNW 01:15:38 54° NNE 01:15:38 54° NNE
Meteor 2-20 4.4 01:17:37 79° N 01:17:37 79° N 01:23:23 10° N
Cosmos 1980 Rocket 3.7 01:21:01 10° N 01:25:49 28° ENE 01:27:02 26° E
Cosmos 2278 4.5 01:24:06 10° NNW 01:28:14 43° WNW 01:28:14 43° WNW
CZ-4C R/B 3.8 01:30:35 22° WNW 01:32:26 27° NW 01:37:27 10° NNE
Cosmos 724 4.5 01:35:20 65° NNW 01:35:20 65° NNW 01:40:43 10° NNE
Meteor 2-2 Rocket 4.4 01:29:16 10° N 01:34:22 71° N 01:34:22 71° N
CZ-2C R/B 3.8 01:40:06 51° ENE 01:40:06 51° ENE 01:45:32 10° N
Lacrosse 5 rocket 4.3 01:42:28 10° N 01:45:06 16° NNE 01:47:49 10° ENE
Cosmos 2082 Rocket 2.7 01:45:38 53° NW 01:45:38 53° NW 01:50:49 10° NNE
Cosmos 1697 Rocket 3.0 01:39:59 10° NNW 01:45:14 64° NE 01:45:14 64° NE
Cosmos 1833 Rocket 3.0 01:50:36 61° NW 01:50:36 61° NW 01:55:40 10° NNE
Cosmos 1633 Rocket 4.5 02:08:56 35° NE 02:08:56 35° NE 02:11:55 10° NNE
Cosmos 1656 4.3 02:03:18 10° NNW 02:07:35 47° WNW 02:07:35 47° WNW
Lacrosse 5 2.4 02:04:05 10° NW 02:08:19 55° N 02:08:19 55° N
MOS 1-B Rocket 4.5 02:13:51 62° WSW 02:14:24 63° WSW 02:21:09 10° NNW
Cosmos 540 Rocket 3.8 02:10:11 10° NNW 02:14:31 62° N 02:14:31 62° N
CZ-2C R/B 3.5 02:15:26 10° N 02:20:21 39° WNW 02:20:21 39° WNW
USA 215 3.6 02:17:50 10° NE 02:24:04 47° SE 02:24:04 47° SE
SL-16 R/B 3.5 02:25:15 10° N 02:30:25 35° ENE 02:33:31 21° ESE
Meteor 1-27 4.1 02:30:55 10° N 02:36:47 84° W 02:36:49 84° WSW
Cosmos 2322 Rocket 3.0 02:35:58 10° N 02:41:23 46° ENE 02:43:42 30° ESE
Cosmos 1386 Rocket 4.4 02:41:42 66° SSE 02:42:30 76° E 02:48:39 10° N
Sich 1 3.9 02:46:25 46° NNW 02:46:25 46° NNW 02:49:45 10° N
CENTAUR R/B 3.5 02:50:51 32° W 02:52:43 38° NW 02:59:04 10° NNE
SEDSat Delta rocket 4.4 02:54:55 45° SE 02:54:55 45° SE 03:00:01 10° ESE
Cosmos 1703 4.2 02:54:37 45° N 02:54:37 45° N 02:57:27 10° N
Cosmos 1745 Rocket 4.1 02:54:49 58° WSW 02:55:30 62° W 03:01:48 10° N
Cosmos 1271 Rocket 3.8 02:55:17 10° N 02:58:10 42° NE 02:58:10 42° NE
ISS -0.7 02:56:37 10° NNW 02:59:12 21° NNE 03:01:46 10° E
Cosmos 968 Rocket 3.7 02:59:41 57° WNW 02:59:41 57° WNW 03:04:41 10° N
CZ-2D R/B 4.5 02:56:47 10° ENE 02:59:41 15° E 03:02:35 10° SE
H-2A ROCKET BODY 4.3 02:44:57 10° WSW 03:05:02 - ESE 02:52:38 20° WSW
Nadezhda 1 Rocket 3.8 02:57:37 10° NNW 03:03:44 70° W 03:04:27 63° SW
Cosmos 1709 Rocket 4.1 03:05:15 49° SSE 03:06:58 72° E 03:13:12 10° N
ERS-2 3.1 03:06:05 10° N 03:08:48 46° N 03:08:48 46° N
Cosmos 1980 Rocket 3.0 03:04:41 10° NW 03:08:46 35° W 03:08:46 35° W
Meteor 1-4 Rocket 3.4 03:06:12 10° N 03:09:08 50° N 03:09:08 50° N
Cosmos 2360 Rocket 4.0 03:05:44 10° N 03:10:36 29° ENE 03:15:26 10° ESE
Cosmos 1862 Rocket 3.6 03:06:34 10° N 03:11:02 72° E 03:11:06 72° E
Meteor 2-10 4.0 03:06:08 10° N 03:11:27 89° W 03:12:13 67° S
NPP 3.5 03:06:52 10° NNE 03:12:17 90° ESE 03:13:03 67° SSW
SL-08 R/B 3.3 03:18:22 68° SSE 03:18:59 88° ENE 03:23:55 10° NNW
IRAS Rocket 4.4 03:13:53 10° N 03:19:14 55° WNW 03:20:01 51° WSW
BREEZE-M DEB (TANK) 4.4 03:19:41 10° NW 03:23:22 66° NE 03:37:29 10° ESE
Lacrosse 5 rocket 1.4 03:20:31 10° NW 03:24:55 87° NE 03:25:31 67° SE
Cosmos 2219 4.4 03:25:14 24° SE 03:27:39 34° ESE 03:32:45 10° NE
CZ-3 Stage 3 3.4 03:10:36 10° W 03:27:40 50° S 03:31:32 10° ESE
ATLAS CENTAUR R/B 4.4 03:28:07 10° N 03:31:22 18° NE 03:34:26 10° E
Centaur D-1A AC-32 4.0 03:32:17 27° SSE 03:32:24 27° SSE 03:41:07 10° ESE
Cosmos 1869 Rocket 4.4 03:33:16 35° SE 03:34:34 45° E 03:38:48 10° NNE
Cosmos 923 Rocket 3.9 03:31:10 10° NNW 03:36:26 82° WSW 03:38:09 44° S
IRS-1C 4.0 03:31:42 10° N 03:37:03 80° WNW 03:38:29 50° SSW
Cosmos 2221 Rocket 4.3 03:33:37 10° N 03:38:01 51° E 03:40:17 26° SE
ATLAS 5 CENTAUR R/B 1.8 03:37:19 57° WSW 03:38:14 75° WNW 03:43:26 10° NNE
Spot 4 Rocket 4.0 03:34:01 10° NNE 03:39:11 77° ESE 03:40:49 44° S
GPS 2-05 Rocket1 4.1 03:41:58 30° ESE 03:41:58 30° ESE 03:43:51 10° E
Cosmos 1680 Rocket 3.4 03:39:40 10° NNW 03:44:55 90° S 03:47:39 29° SSE
Cosmos 1455 2.9 03:41:32 10° NNW 03:44:25 39° WNW 03:44:25 39° WNW
Resurs 1-4 Rocket 3.0 03:41:08 10° NNE 03:46:11 42° E 03:49:25 21° SSE
Cosmos 773 Rocket 4.1 03:41:53 10° NNW 03:46:51 50° WSW 03:47:30 47° SW
Cosmos 2292 Rocket 3.6 03:53:53 40° NW 03:53:53 40° NW 03:56:51 10° N
Cosmos 1626 3.4 03:56:33 27° WNW 03:56:33 27° WNW 03:59:26 10° NNW
Cosmos 1346 3.9 03:56:55 41° NW 03:56:55 41° NW 03:59:18 10° N
Cosmos 1833 4.3 03:57:55 37° SW 04:00:11 67° WNW 04:05:56 10° NNE
ERS-1 4.5 03:56:37 10° N 04:01:44 72° WNW 04:03:51 36° SSW
ARIANE 5 R/B 2.4 03:57:59 10° NNE 04:03:05 89° ESE 04:05:28 32° SSW
COSMOS 2428 4.2 03:57:55 10° N 04:03:11 38° ENE 04:08:24 10° SE
Cosmos 304 Rocket 3.7 03:58:32 10° NNW 04:03:20 67° WSW 04:05:42 29° S
CRYOSAT 2 4.4 04:00:18 10° N 04:05:11 77° E 04:08:00 25° S
Cosmos 1703 Rocket 3.4 04:02:05 10° NNW 04:06:25 71° W 04:08:03 37° S
USA 215 3.9 04:00:49 10° NE 04:07:02 48° NW 04:11:25 20° WSW
GENESIS II 4.2 04:03:45 10° NNW 04:07:53 87° ENE 04:11:54 10° SSE
Cosmos 2181 Rocket 4.3 04:02:49 10° NNW 04:08:40 47° W 04:11:26 29° SW
IRS-1D 3.5 04:03:51 10° NNE 04:09:13 90° ESE 04:12:09 27° SSW
OAO 3 Rocket 3.1 04:08:11 36° WSW 04:09:50 57° S 04:14:26 10° ESE
OE (NEXTSAT) 4.4 04:09:55 55° SSW 04:10:32 70° SSE 04:14:07 10° ENE
Cosmos 1898 Rocket 3.5 04:09:13 29° S 04:11:56 80° ESE 04:17:08 10° NNE
SL-16 R/B 3.0 04:09:31 10° NW 04:14:22 30° WSW 04:15:17 28° WSW
Cosmos 1937 Rocket 3.9 04:13:22 21° S 04:16:53 62° ESE 04:22:07 10° NNE
BREEZE-M DEB (TANK) 4.3 04:15:10 10° NW 04:17:36 19° NNE 04:19:23 10° ENE
ADEOS 4.4 04:15:10 10° N 04:19:52 35° WNW 04:22:03 25° WSW
UNK 3.6 04:19:25 13° SSE 04:23:27 85° W 04:28:02 10° NNW
Cosmos 2154 Rocket 4.5 04:17:35 10° S 04:23:47 61° E 04:30:03 10° NNE
UNKNOWN OBJECT B 2.9 04:20:17 10° NNE 04:24:07 71° E 04:26:32 22° S
Cosmos 2322 Rocket 3.4 04:20:52 10° NW 04:25:01 22° W 04:25:26 21° WSW
Cosmos 389 Rocket 4.0 04:21:54 10° N 04:25:23 38° ENE 04:28:51 10° SSE
Okean 1-7 2.9 04:21:25 10° NNW 04:25:48 71° W 04:28:49 19° S
SL-08 ROCKET BODY 4.4 04:26:11 20° SSW 04:30:27 69° W 04:36:35 10° N
AVUM R/B 4.3 04:31:04 18° SE 04:31:39 21° ESE 04:33:20 10° NE
Cosmos 2219 Rocket 4.1 04:26:54 10° N 04:31:52 31° ENE 04:36:48 10° ESE
Cosmos 2150 Rocket 4.1 04:29:36 24° SW 04:32:45 63° WNW 04:38:06 10° NNE
Cosmos 2074 Rocket 4.2 04:29:54 22° SSW 04:33:51 52° W 04:39:57 10° N
Meteor 2-3 Rocket 3.8 04:30:01 16° S 04:34:45 86° W 04:40:35 10° N
SL-24 DEB 4.4 04:30:09 10° N 04:34:48 74° E 04:39:22 10° S
ISS -3.0 04:32:40 10° WNW 04:35:47 42° SW 04:38:51 10° SSE
CZ-2D R/B 2.2 04:34:55 10° N 04:40:06 60° WNW 04:44:01 18° SSW
Cosmos 2184 Rocket 4.4 04:36:51 19° SW 04:41:09 48° W 04:47:15 10° N
EO 1 Del DPAF 4.2 04:44:32 22° SW 04:46:05 29° W 04:49:30 10° NW
NOSS 3-1 (C) 4.1 04:41:18 11° S 04:46:42 48° ESE 04:52:45 10° NE
SL-16 R/B 2.7 04:40:52 10° S 04:46:55 51° W 04:53:01 10° NNW
Cosmos 1674 Rocket 4.3 04:46:26 10° N 04:50:40 52° E 04:54:54 10° SSE
Okean O Rocket 1.6 04:50:07 10° NNE 04:54:34 86° W 04:58:56 10° SSW
Cosmos 2360 Rocket 2.7 04:49:30 10° NW 04:54:36 36° WSW 04:59:41 10° S
Meteor 2-10 Rocket 3.8 04:49:39 10° N 04:54:44 72° E 04:59:57 10° SSE
Cosmos 2227 Rocket 3.1 04:51:15 10° S 04:56:38 48° ESE 05:02:02 10° NE
In-Cosmos 22 Rocket 4.5 04:53:25 15° SSW 04:57:38 47° WNW 05:02:50 10° N
PSLV R/B 3.8 04:56:42 10° N 05:00:41 75° WNW 05:04:42 10° SSW
ADEOS II 4.2 04:59:05 10° NE 05:03:23 25° E 05:07:38 10° SSE
Meteor 1-10 Rocket 4.5 04:58:37 10° N 05:04:23 79° E 05:10:12 10° SSE
GP-B 3.8 05:00:31 10° N 05:04:53 56° E 05:09:14 10° S
CZ-4B R/B 3.3 05:00:49 10° NNE 05:06:19 89° WNW 05:11:54 10° SSW
ATLAS CENTAUR R/B 1.6 05:06:23 10° NW 05:10:50 50° WSW 05:14:54 10° S
Cosmos 2333 4.2 05:05:55 10° NNW 05:11:34 75° WSW 05:17:14 10° SSE
Cosmos 1238 Rocket 4.2 05:04:58 10° N 05:11:39 75° E 05:17:28 10° SSE
Cosmos 2219 4.2 05:07:10 12° WSW 05:11:44 32° WNW 05:16:51 10° N
USA 229 DEB 4.5 05:07:20 11° WSW 05:13:28 41° NW 05:20:02 10° NNE
USA 229 4.4 05:07:26 11° WSW 05:13:34 41° NW 05:20:09 10° NNE
Cosmos 1782 2.9 05:11:02 10° N 05:15:03 84° E 05:19:01 10° S
CZ-4B R/B 3.0 05:11:21 10° N 05:15:29 85° WNW 05:19:48 10° SSW
Cosmos 1606 4.0 05:13:00 10° N 05:16:39 43° E 05:20:15 10° SSE
Cosmos 990 Rocket 4.3 05:12:49 10° SW 05:17:50 50° WNW 05:22:51 10° N
GPS 2-05 Rocket1 3.0 05:15:30 10° W 05:18:44 48° SSW 05:22:02 10° ESE
Cosmos 2218 Rocket 4.4 05:15:50 10° S 05:21:53 67° E 05:28:00 10° NNE
CZ-2D R/B 4.4 05:19:40 10° N 05:23:16 30° WNW 05:26:47 10° SW
ATLAS 5 CENTAUR R/B 4.2 05:21:45 10° WNW 05:23:56 13° NW 05:26:11 10° N
BREEZE-M DEB (TANK) 4.2 05:19:49 10° WNW 05:24:45 39° NNE 05:27:24 10° E
Okean-O 3.0 05:20:28 10° NNE 05:24:54 68° E 05:29:18 10° S
Resurs 1-4 Rocket 3.5 05:21:40 10° NNW 05:25:42 22° WNW 05:29:44 10° WSW
BREEZE-M TANK 4.0 05:25:54 10° NW 05:28:06 24° NNE 05:30:35 10° ENE
DELTA 2 R/B (1) 3.9 05:22:50 10° SW 05:28:18 58° SSE 05:33:47 10° ENE
Cosmos 1862 3.6 05:25:13 10° S 05:29:10 70° E 05:33:08 10° NNE
Cosmos 2297 Rocket 2.7 05:23:52 10° S 05:29:26 63° ESE 05:35:02 10° NNE
Cosmos 1408 3.6 05:26:35 10° S 05:30:07 49° E 05:33:44 10° NNE
CZ-4B DEB 4.4 05:27:39 10° N 05:33:03 58° WNW 05:38:26 10° SSW
Cosmos 1340 Rocket 3.2 05:29:30 10° SSW 05:33:23 45° W 05:37:15 10° N
NOSS 3-1 (A) 3.5 05:27:47 10° SSW 05:33:37 84° ESE 05:40:03 10° NNE
GOES 2 Rocket 4.2 05:30:55 10° SW 05:34:43 26° S 05:38:13 10° ESE
Cosmos 2333 Rocket 2.4 05:31:16 10° NNW 05:37:00 84° ENE 05:42:44 10° SSE
